#timestamp,LO_Frequency,Hit,StdDev 
1519722015.3,286047002.1,N
1519722035.2,286046999.7,N
1519722085.0,286046999.7,E
1519722095.9,286047000.3,N
1519722115.7,286047002.2,P
1519722135.5,286047002.6,N
1519722155.4,286046999.7,N
1519722175.2,286047002.6,N
1519722195.1,286046999.7,N
1519722196.0,286046999.7,N
1519722215.8,286047000.5,N
1519722235.6,286047002.8,N
1519722255.5,286047002.8,N
1519722275.3,286047002.6,N
1519722295.1,286047002.6,N
1519722315.9,286046999.7,N
1519722335.7,286047002.8,N
1519722355.6,286047002.7,N
1519722375.4,286047001.9,N
1519722395.2,286047001.9,N
1519722415.1,286047001.4,N
1519722416.0,286047001.4,N
1519722435.8,286047002.2,N
1519722455.6,286047001.3,N
1519722475.5,286047001.4,N
1519722495.3,286047001.4,N
1519722515.2,286047001.6,N
1519722535.9,286047004.0,Y
1519722555.7,286047002.8,P
1519722575.6,286047002.8,P
1519722595.4,286046999.9,N
1519722615.2,286047002.7,N
1519722635.1,286047002.7,N
1519722636.0,286047002.7,N
1519722655.8,286047002.4,N
1519722675.7,286047002.4,N
1519722695.5,286047002.4,N
1519722715.3,286047000.2,N
1519722735.2,286047002.8,N
1519722755.0,286047002.8,N
1519722755.9,286047002.8,N
1519722775.8,286047002.8,N
1519722795.6,286046999.8,N
1519722815.4,286046999.7,N
1519722835.3,286047000.5,N
1519722855.1,286047000.2,N
1519722875.8,286047000.4,N
1519722895.7,286047000.5,N
1519722915.5,286047000.4,N
1519722935.4,286047001.0,N
1519722955.2,286047001.0,N
1519722975.0,286047000.0,N
1519722975.9,286047000.0,N
1519722995.8,286047000.5,N
1519723015.6,286047000.6,N
1519723035.4,286047000.4,N
1519723055.3,286047000.3,N
1519723075.1,286047000.5,N
1519723095.9,286046999.8,N
1519723115.7,286047000.4,N
1519723135.5,286047002.7,N
1519723155.4,286047000.3,N
1519723175.2,286047000.4,N
1519723195.0,286046999.8,N
1519723195.9,286046999.8,N
1519723215.8,286047000.0,N
1519723235.6,286047000.7,N
1519723255.5,286047000.3,N
1519723275.3,286047000.0,N
1519723295.1,286047000.1,N
1519723315.9,286047000.3,N
1519723335.7,286046999.9,N
1519723355.6,286047000.3,N
1519723375.4,286047000.0,N
1519723395.2,286047000.1,N
1519723415.1,286046999.9,N
1519723416.0,286046999.9,N
1519723435.8,286047000.4,N
1519723455.6,286047000.5,N
1519723475.5,286047000.0,N
1519723495.3,286047000.6,N
1519723515.2,286047000.3,N
1519723535.9,286047000.0,N
1519723555.7,286047000.0,N
1519723575.6,286046999.9,N
1519723595.4,286047000.0,N
1519723615.2,286047000.0,N
1519723635.1,286047000.5,N
1519723636.0,286047000.5,N
1519723655.8,286047000.4,N
1519723675.7,286047000.0,N
1519723695.5,286046999.7,N
1519723715.3,286047000.9,Y
1519723735.2,286047001.0,P
1519723755.0,286047000.5,N
1519723755.9,286047000.5,N
1519723775.8,286047000.6,N
1519723795.6,286047000.9,Y
1519723815.4,286046998.7,P
1519723835.3,286046998.7,N
1519723855.1,286046998.6,N
1519723875.9,286046998.1,N
1519723895.7,286047001.2,N
1519723915.5,286046998.5,N
1519723935.4,286046998.6,N
1519723955.2,286046999.0,N
1519723975.0,286046998.4,N
1519723975.9,286046998.4,N
1519723995.8,286046998.7,N
1519724015.6,286046998.7,N
1519724035.5,286046998.6,N
1519724055.3,286047001.0,N
1519724075.1,286047001.2,N
1519724095.9,286047000.9,N
1519724115.7,286046998.5,N
1519724135.5,286046998.1,N
1519724155.4,286046998.2,N
1519724175.2,286046998.2,N
1519724195.1,286046998.2,N
1519724196.0,286046998.2,N
1519724215.8,286046998.9,N
1519724235.6,286046999.0,N
1519724255.5,286046998.5,N
1519724275.3,286046998.9,N
1519724295.1,286046999.0,N
1519724315.9,286046998.5,N
1519724335.7,286046998.1,N
1519724355.6,286046998.2,N
1519724375.4,286047001.2,N
1519724395.2,286046998.3,N
1519724415.1,286046998.2,N
1519724416.0,286046998.2,N
1519724435.8,286046998.2,N
1519724455.7,286046998.2,N
1519724475.5,286047001.2,N
1519724495.3,286047001.1,N
1519724515.2,286047001.1,N
1519724535.0,286047001.1,N
1519724535.9,286047001.1,N
1519724555.8,286046998.1,N
1519724575.6,286046998.2,N
1519724595.4,286046998.2,N
1519724615.3,286047000.7,N
1519724635.1,286046998.5,N
1519724655.8,286046998.5,N
1519724675.7,286046998.4,N
1519724695.5,286046998.8,N
1519724715.4,286046999.0,N
1519724765.2,286046998.4,E
1519724775.2,286047000.5,N
1519724795.9,286047000.6,P
1519724815.7,286047000.8,P
1519724835.6,286047001.1,Y
1519724855.4,286047000.8,P
1519724875.2,286046998.4,P
1519724895.1,286046998.9,N
1519724896.0,286046998.9,N
1519724915.8,286046998.3,N
1519724935.7,286046998.7,N
1519724955.5,286046998.5,N
1519724975.3,286046998.6,N
1519724995.2,286047000.8,N
1519725015.0,286047001.1,N
1519725015.9,286047001.1,N
1519725035.8,286046998.7,N
1519725055.6,286046998.5,N
1519725075.4,286046999.3,N
1519725095.3,286046999.0,N
1519725115.1,286046999.0,N
1519725135.8,286046999.3,N
1519725155.7,286046999.6,N
1519725175.5,286046999.2,N
1519725195.4,286046999.5,N
1519725215.2,286046998.9,N
1519725235.0,286046999.1,N
1519725235.9,286046999.1,N
1519725255.8,286046996.7,Y
1519725275.6,286046998.8,P
1519725295.5,286046998.8,P
1519725315.3,286046998.9,P
1519725335.1,286046999.0,Y
1519725355.9,286046998.3,P
1519725375.7,286047001.2,P
1519725395.6,286046998.2,N
1519725415.4,286046998.5,N
1519725435.2,286047000.8,N
1519725455.1,286046998.4,N
1519725456.0,286046998.4,N
1519725475.8,286046998.3,N
1519725495.6,286046998.3,N
1519725515.5,286046998.4,N
1519725535.3,286046998.9,N
1519725555.2,286046998.2,N
1519725575.9,286046999.0,N
1519725595.7,286046999.5,N
